Regional Weather Roundup
Issued by NWS

Home | Current Version | Previous Version | Graphics & Text | Print | Product List | Glossary On
Versions: 1 2 3 4 5 6 7 8 9 10 11 12 13 14 15 16 17 18 19 20 21 22 23 24 25 26 27 28 29 30 31 32 33 34 35 36 37 38 39 40 41 42 43 44 45 46 47 48 49 50
000
ASUS43 KFSD 260010
RWRSD

WEATHER ROUNDUP FOR SOUTH DAKOTA
NATIONAL WEATHER SERVICE SIOUX FALLS SD
700 PM CDT SAT APR 25 2015

NOTE: "FAIR" INDICATES FEW OR NO CLOUDS BELOW 12,000 FEET WITH NO
SIGNIFICANT WEATHER AND/OR OBSTRUCTIONS TO VISIBILITY.


SDZ001>005-009-010-012>017-260100-
NORTHWEST AND NORTH CENTRAL SOUTH DAKOTA

CITY           SKY/WX    TMP DP  RH WIND       PRES   REMARKS
BUFFALO          N/A     48  46  93 SE5       29.74R
FAITH            N/A     51  45  79 SE12      29.79R
MOBRIDGE       CLOUDY    56  44  64 E12       29.80R
$$

SDZ012>016-024>037-041>051-057-063-072>074-260100-
SOUTHWEST AND SOUTH CENTRAL SOUTH DAKOTA

CITY           SKY/WX    TMP DP  RH WIND       PRES   REMARKS
RAPID CTY ARPT CLOUDY    53  47  79 E3        29.77R
PIERRE         CLOUDY    58  46  64 SE15      29.78R
CUSTER         CLOUDY    50  41  71 NE6       29.77R
ELLSWORTH AFB  CLOUDY    52  47  85 VRB1      29.77R
PHILIP         CLOUDY    59  49  69 E15       29.75R
PINE RIDGE     CLOUDY    60  45  57 E8        29.72R THUNDER
SPEARFISH      PTSUNNY   48  46  93 W18       29.81R FOG
WINNER         CLOUDY    59  45  59 SE14      29.79R
$$

SDZ004>011-016>023-039-040-260100-
NORTHEAST SOUTH DAKOTA

CITY           SKY/WX    TMP DP  RH WIND       PRES   REMARKS
ABERDEEN       CLOUDY    52  42  69 E13       29.87R
WATERTOWN      CLOUDY    53  42  66 E13       29.87R
BROOKINGS      CLOUDY    55  41  58 E9        29.86R
SISSETON         N/A     56  42  59 SE9       29.88R
$$

SDZ017-020-022-023-036>040-048>070-260100-
SOUTHEAST SOUTH DAKOTA

CITY           SKY/WX    TMP DP  RH WIND       PRES   REMARKS
SIOUX FALLS    PTSUNNY   57  41  55 E12       29.83R
HURON          CLOUDY    59  44  57 E12       29.83R
CHAMBERLAIN    CLOUDY    58  46  63 SE12      29.80S
MITCHELL       CLOUDY    59  45  59 E12       29.83R
YANKTON        PTSUNNY   61  39  44 E13       29.80R
$$

ABBREVIATIONS USED IN REMARKS
   TC - TEMPERATURE IN CELSIUS
  WCI - WIND CHILL INDEX
   HX - HEAT INDEX
  VSB - VISIBILITY




USA.gov is the U.S. government's official web portal to all federal, state and local government web resources and services.